Gaberone/Khama, Botswana

4:47 PM CAT on February 25, 2018 (GMT +0200)
Gaberone/Khama

Weather History for 68240 - October, 2012

Change the Weather History Date:

Wednesday, October 24, 2012

  Actual Average Record
Temperature  
Mean Temperature 62 °F -  
Max Temperature 65 °F 85 °F - ()
Min Temperature 59 °F 62 °F - ()
Degree Days  
Heating Degree Days 3    
Growing Degree Days 12 (Base 50)    
Moisture  
Dew Point 56 °F    
Average Humidity 79    
Maximum Humidity 94    
Minimum Humidity 67    
Precipitation  
Precipitation 0.00 in - - ()
Sea Level Pressure  
Sea Level Pressure 30.16 in    
Wind  
Wind Speed 9 mph ()    
Max Wind Speed 17 mph    
Max Gust Speed -    
Visibility 6.2 miles    
Events      
T = Trace of Precipitation, MM = Missing Value Source: Averaged Metar Reports

Daily Weather History Graph

Daily Weather History Graph

Search for Another Location

Airport or City:

Trip Planner

Search our weather history database for the weather conditions in past years. The results will help you decide how hot, cold, wet, or windy it might be!

Date:

Astronomy

Oct. 24, 2012 Rise Set
Actual Time 5:35 AM CAT 6:26 PM CAT
Civil Twilight 5:11 AM CAT 6:49 PM CAT
Nautical Twilight 4:44 AM CAT 7:17 PM CAT
Astronomical Twilight 4:15 AM CAT 7:45 PM CAT
Moon 1:55 PM CAT (10/24) 1:58 AM CAT (10/24)
Length of Visible Light 13h 38m
Length of Day
12h 51m
Waxing Gibbous, 73% of the Moon is Illuminated
Oct 24
Waxing Gibbous
Oct 29
Full
Nov 7
Last Quarter
Nov 14
New
Nov 20
First Quarter

Hourly Weather History & Observations

Time (CAT) Temp. Dew Point Humidity Pressure Visibility Wind Dir Wind Speed Gust Speed Precip Events Conditions
12:00 AM 60.8 °F 57.2 °F 88% 30.09 in - ENE 8.1 mph - N/A   Clear
1:00 AM 60.8 °F 57.2 °F 88% 30.09 in 6.2 mi East 4.6 mph - N/A   Scattered Clouds
2:00 AM 60 °F 56 °F 83%  in 6 mi East 3.5 mph - -   Partly Cloudy
2:00 AM 60.8 °F 57.2 °F 88% 30.09 in 6.2 mi East 3.5 mph - N/A   Scattered Clouds
3:00 AM 59.0 °F 57.2 °F 94% 30.09 in 6.2 mi ESE 5.8 mph - N/A   Scattered Clouds
4:00 AM 60.8 °F 57.2 °F 88% 30.09 in 6.2 mi East 11.5 mph - N/A   Scattered Clouds
5:00 AM 60.8 °F 55.4 °F 82% 30.12 in 6.2 mi ENE 11.5 mph - N/A   Scattered Clouds
6:00 AM 60.8 °F 57.2 °F 88% 30.12 in 6.2 mi ENE 8.1 mph - N/A   Overcast
7:00 AM 60.8 °F 55.4 °F 82% 30.15 in 6.2 mi ENE 15.0 mph - N/A   Overcast
8:00 AM 62 °F 56 °F 75%  in 6 mi ENE 11.5 mph - -   Overcast
8:00 AM 60.8 °F 55.4 °F 82% 30.18 in 6.2 mi ENE 11.5 mph - N/A   Overcast
9:00 AM 62.6 °F 55.4 °F 77% 30.21 in 6.2 mi ENE 13.8 mph - N/A   Overcast
10:00 AM 62.6 °F 55.4 °F 77% 30.21 in 6.2 mi ENE 17.3 mph - N/A   Overcast
11:00 AM 62.6 °F 55.4 °F 77% 30.21 in 6.2 mi NE 16.1 mph - N/A   Overcast
12:00 PM 64.4 °F 57.2 °F 77% 30.21 in 6.2 mi NE 12.7 mph - N/A   Overcast
1:00 PM 64.4 °F 57.2 °F 77% 30.18 in 6.2 mi ENE 12.7 mph - N/A   Overcast
2:00 PM 64 °F 59 °F 80%  in 6 mi NE 13.8 mph - -   Overcast
2:00 PM 64.4 °F 59.0 °F 83% 30.18 in 6.2 mi NE 13.8 mph - N/A   Overcast
3:00 PM 66.2 °F 57.2 °F 73% 30.15 in 6.2 mi NE 15.0 mph - N/A   Drizzle
4:00 PM 66.2 °F 57.2 °F 73% 30.15 in 6.2 mi NE 13.8 mph - N/A   Overcast
5:00 PM 64.4 °F 55.4 °F 73% 30.15 in 6.2 mi NNE 13.8 mph - N/A   Overcast
6:00 PM 64.4 °F 55.4 °F 73% 30.15 in 6.2 mi ENE 12.7 mph - N/A   Overcast
7:00 PM 64.4 °F 55.4 °F 73% 30.18 in 6.2 mi ENE 12.7 mph - N/A   Overcast
8:00 PM 64 °F 56 °F 67%  in 6 mi ENE 17.3 mph - -   Overcast
8:00 PM 64.4 °F 55.4 °F 73% 30.18 in 6.2 mi ENE 17.3 mph - N/A   Overcast
9:00 PM 64.4 °F 55.4 °F 73% 30.21 in 6.2 mi ENE 12.7 mph - N/A   Overcast
10:00 PM 64.4 °F 55.4 °F 73% 30.21 in 6.2 mi NE 10.4 mph - N/A   Overcast
11:00 PM 64.4 °F 55.4 °F 73% 30.21 in 6.2 mi NE 9.2 mph - N/A   Mostly Cloudy